Weather History for Nome, AK

Change the Weather History Date:

Friday, March 15, 2013

  Actual Average Record
Temperature  
Mean Temperature 12 °F 10 °F  
Max Temperature 17 °F 18 °F 39 °F (1918)
Min Temperature 7 °F - -42 °F (1966)
Degree Days  
Heating Degree Days 53 55  
Month to date heating degree days 754 832  
Since 1 July heating degree days 10295 10114  
Cooling Degree Days 0    
Month to date cooling degree days 0  
Year to date cooling degree days 0  
Moisture  
Dew Point 5 °F    
Average Humidity 0    
Maximum Humidity 0    
Minimum Humidity 0    
Precipitation  
Precipitation 0.02 in 0.02 in 0.82 in (1918)
Month to date precipitation 0.53 0.34  
Year to date precipitation 2.05 2.21  
Snow  
Snow 0.40 in 0.20 in 4.50 in (1918)
Month to date snowfall 5.7 4.8  
Since 1 July snowfall 47.0 61.5  
Snow Depth 28.00 in    
Sea Level Pressure  
Sea Level Pressure 29.78 in    
Wind  
Wind Speed 13 mph (East)    
Max Wind Speed 24 mph    
Max Gust Speed 28 mph    
Visibility 6 miles    
Events Fog , Snow    
T = Trace of Precipitation, MM = Missing Value Source: NWS Daily Summary

Daily Weather History Graph

Daily Weather History Graph

Search for Another Location

Airport:

Trip Planner

Search our weather history database for the weather conditions in past years. The results will help you decide how hot, cold, wet, or windy it might be!

Date:

Astronomy

Mar. 15, 2013 Rise Set
Actual Time 9:18 AM AKDT 9:04 PM AKDT
Civil Twilight 8:30 AM AKDT 9:52 PM AKDT
Nautical Twilight 7:32 AM AKDT 10:50 PM AKDT
Astronomical Twilight 6:28 AM AKDT 11:55 PM AKDT
Moon 9:37 AM AKDT (3/15) 2:04 AM AKDT (3/15)
Length of Visible Light 13h 21m
Length of Day
11h 45m
Waxing Crescent, 16% of the Moon is Illuminated
Mar 15
Waxing Crescent
Mar 19
First Quarter
Mar 27
Full
Apr 2
Last Quarter
Apr 10
New

Hourly Weather History & Observations

Time (AKDT) Temp. Windchill Dew Point Humidity Pressure Visibility Wind Dir Wind Speed Gust Speed Precip Events Conditions
12:53 AM 7.0 °F -6.6 °F -4.0 °F 61% 29.96 in 10.0 mi NNE 9.2 mph - N/A   Clear
1:53 AM 8.1 °F -8.4 °F -4.9 °F 56% 29.96 in 10.0 mi NE 13.8 mph - N/A   Clear
2:53 AM 7.0 °F -11.0 °F -4.9 °F 58% 29.93 in 10.0 mi NNE 16.1 mph - N/A   Clear
3:53 AM 7.0 °F -9.8 °F -4.9 °F 58% 29.91 in 10.0 mi NNE 13.8 mph - N/A   Clear
4:53 AM 8.1 °F -8.4 °F -4.0 °F 58% 29.89 in 10.0 mi North 13.8 mph - N/A   Clear
5:53 AM 10.0 °F -4.5 °F -2.0 °F 58% 29.87 in 10.0 mi North 11.5 mph - N/A   Mostly Cloudy
6:53 AM 10.0 °F -6.5 °F -2.0 °F 58% 29.85 in 10.0 mi NNE 15.0 mph - N/A   Scattered Clouds
7:53 AM 10.0 °F -5.2 °F -2.0 °F 58% 29.84 in 10.0 mi NE 12.7 mph - N/A   Scattered Clouds
8:53 AM 10.0 °F -2.9 °F -0.9 °F 61% 29.82 in 10.0 mi NE 9.2 mph - N/A   Scattered Clouds
9:53 AM 14.0 °F 1.2 °F 1.0 °F 56% 29.80 in 10.0 mi ENE 10.4 mph - N/A   Mostly Cloudy
10:53 AM 15.1 °F -1.1 °F 1.0 °F 54% 29.79 in 10.0 mi East 17.3 mph - N/A   Mostly Cloudy
11:53 AM 15.1 °F -1.1 °F 3.0 °F 59% 29.78 in 10.0 mi East 17.3 mph 26.5 mph N/A   Mostly Cloudy
12:53 PM 16.0 °F 0.1 °F 3.9 °F 59% 29.76 in 10.0 mi East 17.3 mph - N/A   Mostly Cloudy
1:53 PM 15.1 °F -0.6 °F 3.9 °F 61% 29.76 in 10.0 mi East 16.1 mph - N/A   Mostly Cloudy
2:53 PM 16.0 °F 4.4 °F 3.9 °F 59% 29.77 in 9.0 mi ENE 9.2 mph - 0.00 in Snow Light Snow
3:53 PM 16.0 °F 2.3 °F 5.0 °F 62% 29.76 in 9.0 mi East 12.7 mph - 0.00 in Snow Light Snow
4:09 PM 15.8 °F 0.9 °F 6.8 °F 68% 29.75 in 3.0 mi East 15.0 mph - 0.00 in Snow Light Snow
4:53 PM 16.0 °F 2.3 °F 8.1 °F 71% 29.75 in 4.0 mi East 12.7 mph - 0.00 in   Overcast
5:53 PM 16.0 °F 1.7 °F 8.1 °F 71% 29.74 in 6.0 mi East 13.8 mph - N/A   Overcast
6:12 PM 15.8 °F 0.3 °F 8.6 °F 73% 29.72 in 2.0 mi East 16.1 mph 21.9 mph N/A   Overcast
6:23 PM 15.8 °F -1.5 °F 8.6 °F 73% 29.72 in 1.5 mi ESE 20.7 mph - N/A   Overcast
6:34 PM 15.8 °F -1.1 °F 8.6 °F 73% 29.71 in 3.0 mi ESE 19.6 mph - N/A   Overcast
6:53 PM 15.1 °F -2.5 °F 10.0 °F 80% 29.73 in 1.0 mi East 20.7 mph - 0.00 in Snow Light Snow
7:00 PM 15.8 °F -0.6 °F 10.4 °F 79% 29.72 in 0.8 mi East 18.4 mph - 0.00 in Snow Light Snow
7:53 PM 15.1 °F -2.0 °F 12.0 °F 88% 29.73 in 0.5 mi ESE 19.6 mph - 0.00 in Fog , Snow Light Snow
8:11 PM 15.8 °F 0.3 °F 10.4 °F 79% 29.72 in 0.8 mi ESE 16.1 mph - 0.00 in Fog , Snow Light Snow
8:22 PM 15.8 °F -0.6 °F 10.4 °F 79% 29.71 in 1.2 mi East 18.4 mph - 0.00 in Snow Light Snow
8:53 PM 15.1 °F -2.5 °F 10.0 °F 80% 29.71 in 1.8 mi ESE 20.7 mph - 0.00 in Snow Light Snow
9:53 PM 15.1 °F -0.1 °F 12.0 °F 88% 29.72 in 1.2 mi ESE 15.0 mph 25.3 mph 0.01 in Snow Light Snow
10:15 PM 12.2 °F 1.7 °F 8.6 °F 85% 29.72 in 2.5 mi South 6.9 mph - 0.00 in Snow Light Snow
10:25 PM 12.2 °F 2.9 °F 8.6 °F 85% 29.71 in 4.0 mi South 5.8 mph - 0.00 in Snow Light Snow
10:53 PM 10.9 °F 1.4 °F 9.0 °F 92% 29.72 in 3.0 mi South 5.8 mph - 0.00 in Snow Light Snow
10:56 PM 10.4 °F 2.2 °F 8.6 °F 92% 29.72 in 1.8 mi South 4.6 mph - 0.00 in Snow Light Snow
11:10 PM 10.4 °F 4.0 °F 8.6 °F 92% 29.72 in 3.0 mi SSE 3.5 mph - 0.01 in Snow Light Snow
11:19 PM 10.4 °F - 8.6 °F 92% 29.73 in 4.0 mi Calm Calm - 0.01 in Snow Light Snow
11:53 PM 12.0 °F - 9.0 °F 88% 29.73 in 5.0 mi Calm Calm - 0.01 in Snow Light Snow